Weather in Dakhovskaya

Russia / Republic of Adygea     44°13′42″N   40°12′04″E
temp.,
°C
wind,
m/s
gust,
m/s
humid.,
%
clouds,
%
prec.,
mm/h
press.,
hPa
HPBL,
m
20 june, sun
sun2000:00+18ssw229681 0.0 101023
03:00+18wsw119596 0.0 101015
06:00+19nne009598 0.0 101260
09:00+25nne21690 0.0 1011729
12:00+28n324874 0.0 10111440
15:00+24n238048 1.6 1012628
18:00+23ene127625 1.1 1012495
21:00+19sse11960 1.3 101215
21 june, mon
mon2100:00+18s11950 0.0 101215
03:00+17s22930 0.0 101122
06:00+19s11870 0.0 101130
09:00+26nne11660 0.0 1010644
12:00+30nne33522 0.0 10091389
15:00+24nne358991 1.5 1010237
18:00+24sse13860 3.4 1010198
21:00+20s22954 3.4 101033
22 june, tue
tue2200:00+19sw22840 0.0 101019
03:00+18ssw22850 0.0 101143
06:00+20sw11870 0.0 101145
09:00+26nw22630 0.0 1010626
12:00+29nnw32480 0.0 10101315
15:00+30n324721 0.1 10101668
18:00+25nnw238024 0.4 1011387
21:00+20sw2297100 7.3 101333
23 june, wed
wed2300:00+19e229782 1.3 101245
03:00+18sse229799 1.6 101342
06:00+19s219566 0.0 101333
09:00+25nnw22687 0.0 1012617
12:00+27nnw325419 0.0 10121317
15:00+29n324879 0.1 10121608
18:00+26n226310 0.1 1013729
21:00+20s11945 0.3 101411
24 june, thu
thu2400:00+19ssw229532 0.6 101425
03:00+18wsw119679 0.6 101411
06:00+19wsw019713 0.3 101448
09:00+22nnw2385100 0.6 1015684
12:00+22nnw1385100 0.8 1015678
15:00+22sse118797 1.5 1015296
18:00+23se117425 0.3 1014619
21:00+18s22954 0.3 101522